Regional Weather Roundup
Issued by NWS Albany, NY

Home | Current Version | Previous Version | Graphics & Text | Print | Product List | Glossary Off
Versions: 1 2 3 4 5 6 7 8 9 10 11 12 13 14 15 16 17 18 19 20 21 22 23 24 25 26 27 28 29 30 31 32 33 34 35 36 37 38 39 40 41 42 43 44 45 46 47 48 49 50

000
ASUS41 KALY 291210
RWRALY

NEW YORK STATE HOURLY WEATHER ROUNDUP
NATIONAL WEATHER SERVICE ALBANY NY
800 AM EDT SAT AUG 29 2015

NOTE: "FAIR" INDICATES FEW OR NO CLOUDS BELOW 12,000 FEET WITH NO
SIGNIFICANT WEATHER AND/OR NO OBSTRUCTIONS TO VISIBILITY.

NYZ032-033-038>043-046>054-057>066-NYZ062>081-291300-
EAST


CITY           SKY/WX    TMP DP  RH WIND       PRES   REMARKS
ALBANY         MOSUNNY   59  55  87 CALM      30.22R
GLENS FALLS    MOSUNNY   59  55  87 S6        30.21S
POUGHKEEPSIE   SUNNY     58  55  90 CALM      30.23R
NEWBURGH       SUNNY     59  57  94 CALM      30.24S
MONTGOMERY     SUNNY     56  54  93 S3        30.23R
WHITE PLAINS   SUNNY     65  58  78 NW5       30.22R
ISLIP          MOSUNNY   69  62  78 N5        30.20R
NEW YORK CITY  MOSUNNY   73  55  53 CALM      30.21R
CENTRAL PARK   SUNNY     69  55  60 CALM      30.24R
$$

NYZ005>009-017-018-044>046-055-056-291300-
CENTRAL


CITY           SKY/WX    TMP DP  RH WIND       PRES   REMARKS
FULTON         MOSUNNY   58  55  90 SE3       30.17S
SYRACUSE       PTSUNNY   59  56  89 E3        30.17S
ROME           MOSUNNY   56  54  93 SE6       30.21R
ELMIRA         FOG       52  52 100 CALM      30.21S VSB 1/4
BINGHAMTON     SUNNY     55  53  93 SE5       30.22S
MONTICELLO     MOSUNNY   52  52 100 CALM      30.26S
$$

NYZ026>034-041>043-291300-
NORTH


CITY           SKY/WX    TMP DP  RH WIND       PRES   REMARKS
WATERTOWN      CLOUDY    57  54  89 NE3       30.16S
FORT DRUM      NOT AVBL
MASSENA        MOSUNNY   57  54  89 CALM      30.19R
SARANAC LAKE   PTSUNNY   52  50  93 CALM      30.20R
PLATTSBURGH    PTSUNNY   56  54  93 CALM      30.18S
$$

NYZ001>004-010>016-019>021-291300-
WEST


CITY           SKY/WX    TMP DP  RH WIND       PRES   REMARKS
NIAGARA FALLS  CLOUDY    58  55  90 CALM      30.17R
BUFFALO        PTSUNNY   59  55  87 N5        30.17R
DUNKIRK        MOSUNNY   59  57  93 S6        30.17R
JAMESTOWN      MOSUNNY   55  54  94 S3        30.21R
WELLSVILLE     SUNNY     58  54  86 CALM      30.24R
ROCHESTER      MOSUNNY   59  55  87 SW7       30.17R
PENN YAN       SUNNY     60  57  89 SW9       30.19S
$$

             KEY
       WCI = WIND CHILL INDEX
       VSB = VISIBILITY
       HX  = HEAT INDEX
$$



USA.gov is the U.S. government's official web portal to all federal, state and local government web resources and services.